Terminal Aerodrome Forecast
Issued by NWS

Home | Current Version | Previous Version | Text Only | Print | Product List | Glossary On
Versions: 1 2 3 4 5 6 7 8 9 10 11 12 13 14 15 16 17 18 19 20 21 22 23 24 25
000
FTUS43 KOAX 230532
TAFSNY
TAF
KSNY 230532Z 2306/2406 12011KT 2SM BR OVC002
     FM230700 12008KT 1/2SM FG OVC001
     FM230900 14009KT 1/4SM FG VV001
     FM231500 05012KT 2SM BR OVC003
     FM231800 16015G25KT P6SM VCTS BKN015CB=

USA.gov is the U.S. government's official web portal to all federal, state and local government web resources and services.